TKY1905 EDAH-LEBL

Flight info

Callsign TKY1905
Flight time 2h 33m
Altitude 40000
Route MASOR1E MASOR DCT MAG M736 BARAP DCT GASKA DCT NATOR N869 NINTU DCT MEBAK H38 RUSIT UY305 ESIDA DCT EQLIQ DCT PUMAL
Aircraft B738/M-SDE2E3FGHIRWXY/LB1

Departure

Time 2026-05-07 14:55
Airport Heringsdorf Airport (EDAH)

Arrival

Time 2026-05-07 17:28
Airport Josep Tarradellas Barcelona-El Prat Airport (LEBL)
Time Latitude Longitude Altitude Speed Heading
2026-05-07 14:48 53.87907 14.13913 71 ft 0 kts 300°
2026-05-07 14:53 53.87910 14.13909 71 ft 2 kts 311°
2026-05-07 14:53 53.87948 14.13885 63 ft 10 kts 327°
2026-05-07 14:54 53.88007 14.13733 69 ft 21 kts 300°
2026-05-07 14:54 53.88089 14.13495 69 ft 18 kts 306°
2026-05-07 14:54 53.88156 14.13490 66 ft 4 kts 57°
2026-05-07 14:54 53.88151 14.13540 68 ft 7 kts 109°
2026-05-07 14:55 53.88064 14.14064 67 ft 88 kts 105°
2026-05-07 14:55 53.87829 14.15464 145 ft 148 kts 104°
2026-05-07 14:55 53.87522 14.17214 932 ft 155 kts 101°
2026-05-07 14:55 53.87255 14.18861 2155 ft 140 kts 100°
2026-05-07 14:56 53.86968 14.20589 2701 ft 170 kts 104°
2026-05-07 14:56 53.86627 14.22607 3580 ft 182 kts 100°
2026-05-07 14:56 53.86295 14.24706 4423 ft 187 kts 101°
2026-05-07 14:56 53.85949 14.26863 5218 ft 192 kts 102°
2026-05-07 14:57 53.85583 14.29062 5970 ft 197 kts 105°
2026-05-07 14:57 53.84767 14.30981 6640 ft 212 kts 143°
2026-05-07 14:57 53.83349 14.31718 7263 ft 221 kts 181°
2026-05-07 14:57 53.81863 14.31104 7977 ft 221 kts 200°
2026-05-07 14:58 53.80436 14.30131 8706 ft 220 kts 203°
2026-05-07 14:58 53.79013 14.29124 9396 ft 226 kts 204°
2026-05-07 14:58 53.77725 14.27605 10088 ft 228 kts 233°
2026-05-07 14:58 53.77092 14.25107 10564 ft 242 kts 263°
2026-05-07 14:59 53.76953 14.22099 10778 ft 271 kts 268°
2026-05-07 14:59 53.76854 14.18763 10997 ft 298 kts 268°
2026-05-07 14:59 53.76747 14.15117 11205 ft 324 kts 270°
2026-05-07 14:59 53.77155 14.11304 11668 ft 337 kts 292°
2026-05-07 15:00 53.78222 14.07757 12533 ft 339 kts 299°
2026-05-07 15:00 53.79392 14.04272 13361 ft 344 kts 300°
2026-05-07 15:00 53.80591 14.00737 14145 ft 349 kts 299°
2026-05-07 15:00 53.81793 13.97158 14944 ft 352 kts 299°
2026-05-07 15:01 53.82984 13.93569 15734 ft 356 kts 299°
2026-05-07 15:01 53.84211 13.89835 16534 ft 360 kts 298°
2026-05-07 15:01 53.85418 13.86144 17317 ft 366 kts 298°
2026-05-07 15:01 53.86651 13.82357 18153 ft 369 kts 298°
2026-05-07 15:02 53.87899 13.78515 18859 ft 374 kts 298°
2026-05-07 15:02 53.89134 13.74625 19558 ft 376 kts 294°
2026-05-07 15:02 53.89792 13.70330 20199 ft 381 kts 273°
2026-05-07 15:02 53.89509 13.65882 20946 ft 383 kts 254°
2026-05-07 15:03 53.88361 13.61798 21592 ft 388 kts 235°
2026-05-07 15:03 53.86475 13.58508 22254 ft 393 kts 216°
2026-05-07 15:03 53.84157 13.56013 22936 ft 397 kts 212°
2026-05-07 15:03 53.81768 13.53631 23539 ft 401 kts 211°
2026-05-07 15:04 53.79337 13.51262 24108 ft 404 kts 210°
2026-05-07 15:04 53.76901 13.48892 24688 ft 405 kts 210°
2026-05-07 15:04 53.74453 13.46496 25198 ft 408 kts 210°
2026-05-07 15:04 53.71989 13.44067 25736 ft 410 kts 210°
2026-05-07 15:05 53.69525 13.41626 26245 ft 412 kts 210°
2026-05-07 15:05 53.67045 13.39161 26722 ft 416 kts 210°
2026-05-07 15:05 53.64546 13.36675 27223 ft 418 kts 210°
2026-05-07 15:05 53.62037 13.34179 27674 ft 421 kts 210°
2026-05-07 15:06 53.59511 13.31667 28135 ft 423 kts 210°
2026-05-07 15:06 53.56971 13.29145 28594 ft 425 kts 210°
2026-05-07 15:06 53.54410 13.26606 29016 ft 428 kts 210°
2026-05-07 15:06 53.51838 13.24059 29459 ft 430 kts 210°
2026-05-07 15:07 53.49250 13.21500 29839 ft 433 kts 210°
2026-05-07 15:07 53.46640 13.18924 30167 ft 437 kts 210°
2026-05-07 15:07 53.44008 13.16331 30513 ft 438 kts 210°
2026-05-07 15:07 53.41372 13.13736 30812 ft 441 kts 210°
2026-05-07 15:08 53.38747 13.11156 31048 ft 445 kts 210°
2026-05-07 15:08 53.36077 13.08536 31376 ft 446 kts 210°
2026-05-07 15:08 53.33396 13.05909 31747 ft 446 kts 210°
2026-05-07 15:08 53.30724 13.03294 32192 ft 445 kts 210°
2026-05-07 15:09 53.28053 13.00682 32604 ft 444 kts 210°
2026-05-07 15:09 53.25391 12.98085 33028 ft 443 kts 210°
2026-05-07 15:09 53.23595 12.96335 33287 ft 443 kts 210°
2026-05-07 15:09 53.20065 12.92900 33762 ft 443 kts 210°
2026-05-07 15:10 53.18267 12.91154 34019 ft 443 kts 210°
2026-05-07 15:10 53.15604 12.88570 34333 ft 443 kts 210°
2026-05-07 15:10 53.12947 12.85995 34694 ft 441 kts 210°
2026-05-07 15:10 53.10296 12.83430 35027 ft 440 kts 210°
2026-05-07 15:11 53.07654 12.80877 35294 ft 440 kts 210°
2026-05-07 15:11 53.05005 12.78321 35586 ft 440 kts 210°
2026-05-07 15:11 53.02359 12.75772 35879 ft 440 kts 210°
2026-05-07 15:11 52.99709 12.73223 36158 ft 440 kts 210°
2026-05-07 15:12 52.97063 12.70681 36442 ft 440 kts 210°
2026-05-07 15:12 52.94412 12.68137 36709 ft 440 kts 210°
2026-05-07 15:12 52.91763 12.65599 36974 ft 440 kts 210°
2026-05-07 15:12 52.89114 12.63066 37251 ft 440 kts 210°
2026-05-07 15:13 52.86465 12.60536 37542 ft 439 kts 210°
2026-05-07 15:13 52.83820 12.58013 37839 ft 438 kts 210°
2026-05-07 15:13 52.81179 12.55497 38112 ft 438 kts 210°
2026-05-07 15:13 52.78541 12.52988 38382 ft 437 kts 210°
2026-05-07 15:14 52.75905 12.50484 38649 ft 437 kts 210°
2026-05-07 15:14 52.73272 12.47987 38865 ft 437 kts 210°
2026-05-07 15:14 52.70640 12.45493 39035 ft 437 kts 210°
2026-05-07 15:14 52.68002 12.42998 39218 ft 437 kts 210°
2026-05-07 15:15 52.65400 12.40541 39398 ft 437 kts 210°
2026-05-07 15:15 52.62764 12.38054 39561 ft 437 kts 210°
2026-05-07 15:15 52.60091 12.35537 39735 ft 437 kts 210°
2026-05-07 15:15 52.57490 12.33091 39915 ft 436 kts 210°
2026-05-07 15:16 52.54854 12.30615 40048 ft 437 kts 210°
2026-05-07 15:16 52.52204 12.28129 40051 ft 440 kts 210°
2026-05-07 15:16 52.46891 12.23157 40055 ft 438 kts 210°
2026-05-07 15:17 52.41611 12.18228 40058 ft 435 kts 210°
2026-05-07 15:17 52.36357 12.13338 40059 ft 433 kts 210°
2026-05-07 15:18 52.31124 12.08481 40065 ft 432 kts 210°
2026-05-07 15:18 52.25863 12.03610 40060 ft 432 kts 210°
2026-05-07 15:19 52.20630 11.98779 40067 ft 432 kts 210°
2026-05-07 15:19 52.15417 11.93979 40072 ft 434 kts 210°
2026-05-07 15:20 52.10146 11.89139 40070 ft 436 kts 210°
2026-05-07 15:20 52.04851 11.84288 40069 ft 437 kts 210°
2026-05-07 15:21 51.99521 11.79485 40072 ft 439 kts 206°
2026-05-07 15:21 51.93785 11.76007 40085 ft 442 kts 200°
2026-05-07 15:22 51.87966 11.72732 40073 ft 443 kts 201°
2026-05-07 15:22 51.82494 11.68252 40080 ft 441 kts 212°
2026-05-07 15:23 51.77273 11.63012 40076 ft 441 kts 212°
2026-05-07 15:23 51.72058 11.57795 40083 ft 442 kts 212°
2026-05-07 15:24 51.66820 11.52625 40075 ft 442 kts 212°
2026-05-07 15:24 51.61565 11.47480 40060 ft 441 kts 212°
2026-05-07 15:25 51.56308 11.42352 40064 ft 440 kts 212°
2026-05-07 15:25 51.51094 11.37279 40066 ft 439 kts 212°
2026-05-07 15:26 51.45873 11.32212 40061 ft 438 kts 212°
2026-05-07 15:26 51.40664 11.27171 40061 ft 437 kts 212°
2026-05-07 15:27 51.35466 11.22153 40061 ft 436 kts 212°
2026-05-07 15:27 51.30272 11.17151 40053 ft 436 kts 212°
2026-05-07 15:28 51.25066 11.12153 40051 ft 436 kts 212°
2026-05-07 15:28 51.19831 11.07140 40051 ft 436 kts 212°
2026-05-07 15:29 51.14619 11.02162 40046 ft 437 kts 212°
2026-05-07 15:29 51.09412 10.97201 40050 ft 437 kts 211°
2026-05-07 15:30 51.04191 10.92242 40061 ft 438 kts 211°
2026-05-07 15:30 50.98943 10.87269 40048 ft 440 kts 211°
2026-05-07 15:31 50.93684 10.82299 40054 ft 441 kts 211°
2026-05-07 15:31 50.88406 10.77325 40051 ft 441 kts 211°
2026-05-07 15:32 50.83160 10.72394 40046 ft 441 kts 211°
2026-05-07 15:32 50.77846 10.67412 40045 ft 441 kts 211°
2026-05-07 15:33 50.72571 10.62480 40051 ft 440 kts 211°
2026-05-07 15:33 50.67292 10.57557 40045 ft 441 kts 211°
2026-05-07 15:34 50.62013 10.52648 40038 ft 440 kts 211°
2026-05-07 15:34 50.56731 10.47747 40039 ft 441 kts 211°
2026-05-07 15:35 50.51444 10.42855 40037 ft 440 kts 211°
2026-05-07 15:35 50.46207 10.38022 40038 ft 439 kts 211°
2026-05-07 15:36 50.40934 10.33166 40043 ft 438 kts 211°
2026-05-07 15:36 50.35703 10.28364 40039 ft 438 kts 211°
2026-05-07 15:37 50.30436 10.23455 40041 ft 437 kts 212°
2026-05-07 15:37 50.25229 10.18534 40040 ft 437 kts 212°
2026-05-07 15:38 50.20008 10.13610 40045 ft 437 kts 212°
2026-05-07 15:38 50.14805 10.08728 40040 ft 438 kts 212°
2026-05-07 15:39 50.09579 10.03842 40043 ft 438 kts 212°
2026-05-07 15:39 50.04347 9.98965 40041 ft 438 kts 212°
2026-05-07 15:40 49.99106 9.94092 40041 ft 439 kts 212°
2026-05-07 15:40 49.93865 9.89230 40050 ft 439 kts 212°
2026-05-07 15:41 49.88614 9.84372 40046 ft 440 kts 212°
2026-05-07 15:41 49.83352 9.79516 40043 ft 440 kts 212°
2026-05-07 15:42 49.78090 9.74674 40044 ft 440 kts 212°
2026-05-07 15:42 49.72826 9.69841 40045 ft 440 kts 212°
2026-05-07 15:43 49.67560 9.65019 40046 ft 440 kts 212°
2026-05-07 15:43 49.62321 9.60233 40045 ft 440 kts 212°
2026-05-07 15:44 49.57060 9.55440 40046 ft 439 kts 212°
2026-05-07 15:44 49.52644 9.51426 40044 ft 439 kts 212°
2026-05-07 15:45 49.47378 9.46651 40046 ft 439 kts 212°
2026-05-07 15:45 49.42077 9.41855 40044 ft 439 kts 212°
2026-05-07 15:46 49.34189 9.34742 40041 ft 438 kts 212°
2026-05-07 15:47 49.28892 9.29981 40043 ft 438 kts 212°
2026-05-07 15:47 49.23639 9.25270 40033 ft 437 kts 212°
2026-05-07 15:48 49.18386 9.20572 40033 ft 437 kts 212°
2026-05-07 15:48 49.13138 9.15890 40028 ft 436 kts 212°
2026-05-07 15:49 49.07892 9.11221 40034 ft 436 kts 212°
2026-05-07 15:49 49.02652 9.06569 40029 ft 436 kts 212°
2026-05-07 15:50 48.97411 9.01927 40030 ft 436 kts 212°
2026-05-07 15:50 48.92168 8.97295 40026 ft 435 kts 212°
2026-05-07 15:51 48.86930 8.92679 40023 ft 435 kts 212°
2026-05-07 15:51 48.81683 8.88066 40020 ft 435 kts 212°
2026-05-07 15:52 48.76441 8.83468 40021 ft 436 kts 212°
2026-05-07 15:52 48.71337 8.79003 40026 ft 435 kts 212°
2026-05-07 15:53 48.66117 8.74447 40024 ft 436 kts 212°
2026-05-07 15:53 48.60867 8.69875 40021 ft 435 kts 212°
2026-05-07 15:54 48.55594 8.65295 40020 ft 435 kts 212°
2026-05-07 15:54 48.50364 8.60763 40021 ft 435 kts 212°
2026-05-07 15:55 48.45112 8.56224 40023 ft 435 kts 212°
2026-05-07 15:55 48.39860 8.51694 40027 ft 435 kts 212°
2026-05-07 15:56 48.34609 8.47176 40029 ft 435 kts 212°
2026-05-07 15:56 48.29349 8.42662 40025 ft 435 kts 212°
2026-05-07 15:57 48.24074 8.38144 40028 ft 434 kts 212°
2026-05-07 15:57 48.18786 8.33626 40027 ft 434 kts 212°
2026-05-07 15:58 48.13523 8.29215 40032 ft 434 kts 211°
2026-05-07 15:58 48.08215 8.24928 40026 ft 434 kts 210°
2026-05-07 15:59 48.02906 8.20656 40030 ft 433 kts 211°
2026-05-07 15:59 47.97609 8.16384 40023 ft 433 kts 211°
2026-05-07 16:00 47.92279 8.12087 40017 ft 432 kts 211°
2026-05-07 16:00 47.86951 8.07799 40013 ft 432 kts 211°
2026-05-07 16:00 47.84310 8.05676 40127 ft 431 kts 210°
2026-05-07 16:01 47.81676 8.03564 39977 ft 430 kts 211°
2026-05-07 16:01 47.76418 7.99354 40016 ft 430 kts 211°
2026-05-07 16:02 47.71123 7.95121 40019 ft 432 kts 211°
2026-05-07 16:02 47.65792 7.90871 40018 ft 434 kts 211°
2026-05-07 16:03 47.60458 7.86628 40020 ft 436 kts 211°
2026-05-07 16:03 47.55075 7.82357 40013 ft 436 kts 211°
2026-05-07 16:04 47.49722 7.78119 40013 ft 436 kts 211°
2026-05-07 16:04 47.44343 7.73871 40012 ft 435 kts 211°
2026-05-07 16:05 47.39326 7.69916 40009 ft 433 kts 211°
2026-05-07 16:05 47.34013 7.65737 40005 ft 432 kts 211°
2026-05-07 16:06 47.29221 7.60566 39998 ft 425 kts 226°
2026-05-07 16:06 47.25693 7.54322 39998 ft 422 kts 233°
2026-05-07 16:07 47.22104 7.47509 39993 ft 421 kts 233°
2026-05-07 16:07 47.18475 7.40748 39998 ft 421 kts 233°
2026-05-07 16:08 47.15447 7.35154 39991 ft 421 kts 233°
2026-05-07 16:08 47.11813 7.28421 39997 ft 421 kts 233°
2026-05-07 16:09 47.08176 7.21688 40002 ft 421 kts 233°
2026-05-07 16:09 47.04523 7.14957 40001 ft 422 kts 232°
2026-05-07 16:10 47.00845 7.08246 40012 ft 423 kts 232°
2026-05-07 16:10 46.97151 7.01519 40020 ft 424 kts 232°
2026-05-07 16:11 46.93459 6.94803 40020 ft 424 kts 232°
2026-05-07 16:11 46.89757 6.88080 40019 ft 424 kts 232°
2026-05-07 16:12 46.86062 6.81350 40021 ft 424 kts 232°
2026-05-07 16:12 46.82365 6.74624 40018 ft 424 kts 232°
2026-05-07 16:13 46.78663 6.67906 40016 ft 425 kts 232°
2026-05-07 16:13 46.74956 6.61197 40016 ft 425 kts 232°
2026-05-07 16:14 46.71211 6.54526 40010 ft 425 kts 230°
2026-05-07 16:14 46.67292 6.48090 40009 ft 424 kts 229°
2026-05-07 16:15 46.63349 6.41709 40007 ft 424 kts 229°
2026-05-07 16:15 46.59427 6.35316 40001 ft 423 kts 229°
2026-05-07 16:16 46.55497 6.28890 40002 ft 423 kts 229°
2026-05-07 16:16 46.51588 6.22505 39992 ft 422 kts 229°
2026-05-07 16:17 46.47678 6.16136 39993 ft 422 kts 229°
2026-05-07 16:17 46.43768 6.09780 39996 ft 422 kts 229°
2026-05-07 16:18 46.39858 6.03441 39999 ft 422 kts 229°
2026-05-07 16:18 46.35938 5.97099 39986 ft 422 kts 229°
2026-05-07 16:19 46.32021 5.90776 39998 ft 422 kts 229°
2026-05-07 16:19 46.28389 5.84137 40002 ft 421 kts 236°
2026-05-07 16:20 46.25125 5.77184 40002 ft 421 kts 236°
2026-05-07 16:20 46.21824 5.70200 39991 ft 421 kts 236°
2026-05-07 16:21 46.18504 5.63243 39998 ft 421 kts 236°
2026-05-07 16:21 46.15174 5.56292 39993 ft 421 kts 236°
2026-05-07 16:22 46.11840 5.49339 39986 ft 421 kts 236°
2026-05-07 16:22 46.08513 5.42401 39997 ft 421 kts 236°
2026-05-07 16:23 46.05180 5.35465 39990 ft 421 kts 236°
2026-05-07 16:23 46.01841 5.28534 39991 ft 421 kts 236°
2026-05-07 16:24 45.98496 5.21609 39980 ft 421 kts 236°
2026-05-07 16:24 45.95149 5.14697 39992 ft 421 kts 235°
2026-05-07 16:25 45.91799 5.07793 39996 ft 421 kts 235°
2026-05-07 16:25 45.88437 5.00885 39992 ft 421 kts 235°
2026-05-07 16:26 45.85073 4.93988 39996 ft 422 kts 235°
2026-05-07 16:26 45.81706 4.87100 39995 ft 422 kts 235°
2026-05-07 16:27 45.78332 4.80215 39988 ft 422 kts 235°
2026-05-07 16:27 45.74949 4.73325 39987 ft 422 kts 235°
2026-05-07 16:28 45.71549 4.66482 39988 ft 422 kts 232°
2026-05-07 16:28 45.67354 4.60615 39994 ft 423 kts 220°
2026-05-07 16:29 45.62832 4.55325 39999 ft 423 kts 220°
2026-05-07 16:29 45.58292 4.49968 39990 ft 423 kts 221°
2026-05-07 16:30 45.53737 4.44548 39991 ft 424 kts 221°
2026-05-07 16:30 45.49191 4.39151 39999 ft 424 kts 220°
2026-05-07 16:31 45.44477 4.34118 39990 ft 425 kts 217°
2026-05-07 16:31 45.39640 4.29287 39991 ft 425 kts 216°
2026-05-07 16:32 45.34791 4.24442 39988 ft 425 kts 217°
2026-05-07 16:32 45.29969 4.19588 39993 ft 425 kts 217°
2026-05-07 16:33 45.25143 4.14717 39975 ft 425 kts 217°
2026-05-07 16:33 45.20323 4.09858 39973 ft 425 kts 217°
2026-05-07 16:34 45.15508 4.05013 39981 ft 424 kts 217°
2026-05-07 16:34 45.10694 4.00181 39985 ft 424 kts 217°
2026-05-07 16:35 45.05884 3.95363 39989 ft 424 kts 217°
2026-05-07 16:35 45.01073 3.90555 39991 ft 423 kts 217°
2026-05-07 16:36 44.96296 3.85790 40003 ft 423 kts 217°
2026-05-07 16:36 44.91497 3.81014 39980 ft 422 kts 217°
2026-05-07 16:37 44.86694 3.76243 39979 ft 422 kts 217°
2026-05-07 16:37 44.81884 3.71476 39967 ft 423 kts 217°
2026-05-07 16:38 44.77072 3.66715 39953 ft 423 kts 217°
2026-05-07 16:38 44.72257 3.61963 39958 ft 422 kts 217°
2026-05-07 16:39 44.67449 3.57227 39952 ft 422 kts 217°
2026-05-07 16:39 44.62606 3.52466 39959 ft 422 kts 217°
2026-05-07 16:40 44.57789 3.47741 39952 ft 422 kts 217°
2026-05-07 16:40 44.52943 3.42997 39958 ft 422 kts 217°
2026-05-07 16:41 44.48154 3.38318 39953 ft 422 kts 217°
2026-05-07 16:41 44.43302 3.33588 39955 ft 422 kts 217°
2026-05-07 16:42 44.39295 3.29689 39946 ft 422 kts 216°
2026-05-07 16:42 44.34473 3.25005 39951 ft 422 kts 216°
2026-05-07 16:43 44.29650 3.20330 39956 ft 422 kts 216°
2026-05-07 16:43 44.24822 3.15660 39953 ft 422 kts 216°
2026-05-07 16:44 44.19990 3.10995 39947 ft 422 kts 216°
2026-05-07 16:44 44.15165 3.06346 39946 ft 422 kts 216°
2026-05-07 16:45 44.10334 3.01701 39954 ft 422 kts 216°
2026-05-07 16:45 44.05468 2.97030 39949 ft 422 kts 216°
2026-05-07 16:46 44.00632 2.92398 39950 ft 422 kts 216°
2026-05-07 16:46 43.95797 2.87776 39944 ft 422 kts 216°
2026-05-07 16:47 43.90704 2.83740 39942 ft 425 kts 205°
2026-05-07 16:47 43.85205 2.80735 39934 ft 425 kts 204°
2026-05-07 16:48 43.79699 2.77759 39953 ft 424 kts 204°
2026-05-07 16:48 43.74204 2.74757 39942 ft 424 kts 204°
2026-05-07 16:49 43.68725 2.71747 39941 ft 424 kts 205°
2026-05-07 16:49 43.63249 2.68737 39950 ft 424 kts 205°
2026-05-07 16:50 43.57768 2.65731 39949 ft 424 kts 205°
2026-05-07 16:50 43.52290 2.62733 39962 ft 424 kts 205°
2026-05-07 16:51 43.46812 2.59740 39957 ft 424 kts 205°
2026-05-07 16:51 43.41334 2.56754 39955 ft 423 kts 205°
2026-05-07 16:52 43.35854 2.53773 39930 ft 424 kts 205°
2026-05-07 16:52 43.30334 2.50775 39778 ft 426 kts 205°
2026-05-07 16:52 43.27558 2.49268 39300 ft 429 kts 205°
2026-05-07 16:53 43.24779 2.47763 38730 ft 428 kts 205°
2026-05-07 16:53 43.22007 2.46264 38015 ft 429 kts 205°
2026-05-07 16:53 43.19237 2.44767 37347 ft 427 kts 205°
2026-05-07 16:53 43.16477 2.43277 36716 ft 425 kts 205°
2026-05-07 16:54 43.13732 2.41798 36080 ft 423 kts 205°
2026-05-07 16:54 43.10997 2.40324 35531 ft 420 kts 205°
2026-05-07 16:54 43.08298 2.38872 35060 ft 415 kts 206°
2026-05-07 16:54 43.05625 2.37435 34587 ft 411 kts 206°
2026-05-07 16:55 43.02979 2.36014 34131 ft 406 kts 206°
2026-05-07 16:55 43.00365 2.34611 33621 ft 402 kts 206°
2026-05-07 16:55 42.97775 2.33221 33089 ft 398 kts 206°
2026-05-07 16:55 42.95209 2.31846 32611 ft 393 kts 206°
2026-05-07 16:56 42.92677 2.30490 32162 ft 389 kts 206°
2026-05-07 16:56 42.90173 2.29149 31694 ft 385 kts 206°
2026-05-07 16:56 42.85241 2.26514 30816 ft 376 kts 206°
2026-05-07 16:57 42.82818 2.25220 30380 ft 373 kts 206°
2026-05-07 16:57 42.80414 2.23938 29939 ft 369 kts 206°
2026-05-07 16:57 42.78033 2.22669 29425 ft 366 kts 206°
2026-05-07 16:57 42.75675 2.21413 28957 ft 363 kts 206°
2026-05-07 16:58 42.73334 2.20171 28483 ft 359 kts 206°
2026-05-07 16:58 42.71022 2.18942 28022 ft 355 kts 206°
2026-05-07 16:58 42.68738 2.17727 27576 ft 351 kts 206°
2026-05-07 16:58 42.66474 2.16524 27130 ft 348 kts 205°
2026-05-07 16:59 42.64224 2.15328 26690 ft 346 kts 205°
2026-05-07 16:59 42.61984 2.14140 26251 ft 345 kts 205°
2026-05-07 16:59 42.59747 2.12955 25806 ft 344 kts 205°
2026-05-07 16:59 42.57516 2.11773 25362 ft 344 kts 205°
2026-05-07 17:00 42.55290 2.10596 24903 ft 344 kts 204°
2026-05-07 17:00 42.53061 2.09418 24464 ft 344 kts 204°
2026-05-07 17:00 42.50834 2.08242 24011 ft 344 kts 204°
2026-05-07 17:00 42.48603 2.07065 23572 ft 344 kts 204°
2026-05-07 17:01 42.46374 2.05890 23059 ft 343 kts 204°
2026-05-07 17:01 42.44153 2.04721 22582 ft 342 kts 204°
2026-05-07 17:01 42.41948 2.03560 22158 ft 339 kts 204°
2026-05-07 17:01 42.39752 2.02406 21745 ft 337 kts 204°
2026-05-07 17:02 42.37560 2.01287 21305 ft 337 kts 199°
2026-05-07 17:02 42.35269 2.00895 20893 ft 341 kts 180°
2026-05-07 17:02 42.32877 2.01153 20489 ft 339 kts 177°
2026-05-07 17:02 42.30561 2.01475 20076 ft 338 kts 177°
2026-05-07 17:03 42.28228 2.01803 19676 ft 336 kts 177°
2026-05-07 17:03 42.25873 2.02120 19283 ft 335 kts 177°
2026-05-07 17:03 42.23559 2.02417 18885 ft 333 kts 177°
2026-05-07 17:03 42.21284 2.02699 18496 ft 332 kts 178°
2026-05-07 17:04 42.18992 2.02982 18108 ft 330 kts 177°
2026-05-07 17:04 42.16705 2.03263 17655 ft 329 kts 177°
2026-05-07 17:04 42.14431 2.03535 17248 ft 327 kts 177°
2026-05-07 17:04 42.12170 2.03806 16848 ft 325 kts 178°
2026-05-07 17:05 42.09924 2.04076 16467 ft 322 kts 177°
2026-05-07 17:05 42.07699 2.04344 16073 ft 320 kts 178°
2026-05-07 17:05 42.05485 2.04609 15702 ft 318 kts 178°
2026-05-07 17:05 42.03288 2.04872 15327 ft 316 kts 178°
2026-05-07 17:06 42.01100 2.05134 14949 ft 315 kts 178°
2026-05-07 17:06 41.98926 2.05395 14585 ft 313 kts 178°
2026-05-07 17:06 41.96760 2.05654 14223 ft 312 kts 178°
2026-05-07 17:06 41.94606 2.05911 13857 ft 310 kts 177°
2026-05-07 17:07 41.92462 2.06167 13471 ft 309 kts 178°
2026-05-07 17:07 41.90326 2.06421 13083 ft 307 kts 177°
2026-05-07 17:07 41.88202 2.06672 12715 ft 305 kts 178°
2026-05-07 17:07 41.86094 2.06921 12343 ft 304 kts 177°
2026-05-07 17:08 41.83992 2.07170 11982 ft 302 kts 177°
2026-05-07 17:08 41.81905 2.07419 11618 ft 301 kts 177°
2026-05-07 17:08 41.79824 2.07668 11252 ft 300 kts 177°
2026-05-07 17:08 41.77750 2.07916 10897 ft 298 kts 177°
2026-05-07 17:09 41.75688 2.08162 10536 ft 297 kts 177°
2026-05-07 17:09 41.73633 2.08408 10247 ft 294 kts 177°
2026-05-07 17:09 41.71624 2.08648 10116 ft 285 kts 177°
2026-05-07 17:09 41.69675 2.08882 9983 ft 277 kts 177°
2026-05-07 17:10 41.67785 2.09106 9907 ft 271 kts 178°
2026-05-07 17:10 41.65907 2.09328 9841 ft 273 kts 177°
2026-05-07 17:10 41.63988 2.09554 9762 ft 279 kts 177°
2026-05-07 17:10 41.62035 2.09785 9689 ft 282 kts 177°
2026-05-07 17:11 41.60085 2.10017 9594 ft 281 kts 177°
2026-05-07 17:11 41.58142 2.10247 9515 ft 279 kts 177°
2026-05-07 17:11 41.56217 2.10474 9431 ft 278 kts 177°
2026-05-07 17:11 41.54292 2.10691 9354 ft 275 kts 180°
2026-05-07 17:12 41.52449 2.10221 9260 ft 269 kts 208°
2026-05-07 17:12 41.50993 2.08736 9201 ft 263 kts 232°
2026-05-07 17:12 41.49958 2.06718 9162 ft 265 kts 240°
2026-05-07 17:12 41.48995 2.04603 9091 ft 269 kts 241°
2026-05-07 17:13 41.48035 2.02465 8996 ft 268 kts 241°
2026-05-07 17:13 41.47080 2.00341 8925 ft 266 kts 241°
2026-05-07 17:13 41.46123 1.98227 8868 ft 265 kts 240°
2026-05-07 17:13 41.45166 1.96127 8798 ft 265 kts 240°
2026-05-07 17:14 41.44211 1.94037 8721 ft 264 kts 240°
2026-05-07 17:14 41.43257 1.91952 8642 ft 263 kts 240°
2026-05-07 17:14 41.42306 1.89882 8577 ft 261 kts 240°
2026-05-07 17:14 41.41359 1.87823 8514 ft 261 kts 240°
2026-05-07 17:15 41.40409 1.85759 8440 ft 261 kts 240°
2026-05-07 17:15 41.39460 1.83694 8387 ft 262 kts 240°
2026-05-07 17:15 41.38501 1.81614 8279 ft 265 kts 240°
2026-05-07 17:15 41.37536 1.79521 8227 ft 266 kts 240°
2026-05-07 17:16 41.36566 1.77423 8149 ft 266 kts 240°
2026-05-07 17:16 41.35583 1.75356 8065 ft 261 kts 234°
2026-05-07 17:16 41.34199 1.73873 7981 ft 255 kts 206°
2026-05-07 17:16 41.32486 1.73388 7860 ft 252 kts 182°
2026-05-07 17:17 41.30802 1.73812 7727 ft 251 kts 160°
2026-05-07 17:17 41.29189 1.74742 7602 ft 249 kts 159°
2026-05-07 17:17 41.27534 1.75084 7455 ft 245 kts 192°
2026-05-07 17:17 41.26013 1.74176 7342 ft 241 kts 223°
2026-05-07 17:18 41.24993 1.72447 7235 ft 239 kts 244°
2026-05-07 17:18 41.24268 1.70446 7110 ft 241 kts 248°
2026-05-07 17:18 41.23586 1.68392 6971 ft 245 kts 248°
2026-05-07 17:18 41.22909 1.66330 6822 ft 242 kts 248°
2026-05-07 17:19 41.22227 1.64297 6683 ft 239 kts 248°
2026-05-07 17:19 41.21546 1.62298 6545 ft 236 kts 247°
2026-05-07 17:19 41.20858 1.60327 6421 ft 235 kts 242°
2026-05-07 17:19 41.19684 1.58850 6123 ft 240 kts 205°
2026-05-07 17:20 41.18032 1.58534 5791 ft 246 kts 174°
2026-05-07 17:20 41.16441 1.59344 5527 ft 247 kts 144°
2026-05-07 17:20 41.15635 1.60398 5352 ft 247 kts 124°
2026-05-07 17:20 41.15149 1.62539 5063 ft 245 kts 85°
2026-05-07 17:21 41.15493 1.64724 4796 ft 242 kts 73°
2026-05-07 17:21 41.15974 1.66871 4527 ft 242 kts 70°
2026-05-07 17:21 41.16563 1.68961 4266 ft 241 kts 66°
2026-05-07 17:21 41.17214 1.70993 4050 ft 238 kts 65°
2026-05-07 17:22 41.17879 1.72977 3926 ft 232 kts 64°
2026-05-07 17:22 41.18529 1.74903 3794 ft 226 kts 65°
2026-05-07 17:22 41.19165 1.76784 3677 ft 220 kts 65°
2026-05-07 17:22 41.19784 1.78612 3577 ft 213 kts 65°
2026-05-07 17:23 41.20373 1.80355 3489 ft 201 kts 65°
2026-05-07 17:23 41.20934 1.82015 3373 ft 194 kts 65°
2026-05-07 17:23 41.21481 1.83629 3278 ft 189 kts 65°
2026-05-07 17:23 41.22016 1.85209 3191 ft 186 kts 65°
2026-05-07 17:24 41.22564 1.86826 3098 ft 194 kts 65°
2026-05-07 17:24 41.23111 1.88439 3003 ft 192 kts 66°
2026-05-07 17:24 41.23651 1.90035 2821 ft 187 kts 66°
2026-05-07 17:24 41.24183 1.91601 2580 ft 184 kts 66°
2026-05-07 17:25 41.24697 1.93117 2336 ft 176 kts 66°
2026-05-07 17:25 41.25189 1.94564 2107 ft 167 kts 67°
2026-05-07 17:25 41.25651 1.95924 1896 ft 156 kts 68°
2026-05-07 17:25 41.26078 1.97178 1703 ft 144 kts 68°
2026-05-07 17:26 41.26473 1.98346 1527 ft 133 kts 68°
2026-05-07 17:26 41.26850 1.99452 1342 ft 133 kts 68°
2026-05-07 17:26 41.27234 2.00584 1148 ft 132 kts 69°
2026-05-07 17:26 41.27608 2.01685 960 ft 129 kts 67°
2026-05-07 17:27 41.27972 2.02752 778 ft 128 kts 68°
2026-05-07 17:27 41.28337 2.03825 592 ft 124 kts 69°
2026-05-07 17:27 41.28685 2.04847 430 ft 123 kts 68°
2026-05-07 17:27 41.29034 2.05874 272 ft 121 kts 68°
2026-05-07 17:28 41.29387 2.06909 111 ft 124 kts 69°
2026-05-07 17:28 41.29733 2.07928 16 ft 112 kts 64°
2026-05-07 17:28 41.29953 2.08562 23 ft 22 kts 65°
2026-05-07 17:28 41.30046 2.08721 21 ft 22 kts 43°
2026-05-07 17:29 41.30152 2.08825 18 ft 7 kts 33°
2026-05-07 17:29 41.30195 2.08857 18 ft 7 kts 23°
2026-05-07 17:29 41.30241 2.08879 17 ft 7 kts 17°
2026-05-07 17:29 41.30283 2.08860 17 ft 7 kts 303°
2026-05-07 17:30 41.30280 2.08798 18 ft 7 kts 251°
2026-05-07 17:30 41.30261 2.08737 18 ft 8 kts 246°
2026-05-07 17:30 41.30227 2.08639 18 ft 15 kts 245°
2026-05-07 17:30 41.30202 2.08517 18 ft 11 kts 296°
2026-05-07 17:31 41.30269 2.08448 17 ft 13 kts 335°
2026-05-07 17:31 41.30349 2.08401 21 ft 12 kts 336°
2026-05-07 17:31 41.30404 2.08322 22 ft 12 kts 282°
2026-05-07 17:31 41.30405 2.08316 21 ft 0 kts 279°